{"data":{"norad_id":27704,"epoch":"2026-09-19T06:07:15.183840Z","epoch_age_seconds":121979,"freshness":"FRESH","line1":"1 27704U 03010A   26262.25503685 -.00000078  00000+0  00000+0 0  9990","line2":"2 27704  54.7489 321.7127 0006739 254.0312 105.8607  1.91455025171721","mean_motion":1.91455025,"eccentricity":0.0006739,"inclination_deg":54.7489,"raan_deg":321.7127,"arg_perigee_deg":254.0312,"mean_anomaly_deg":105.8607,"bstar":0,"rev_number":17172,"period_min":752.13486822819,"perigee_km":20999.621733492,"apogee_km":21036.546360219,"semimajor_km":27396.221046855,"source":"CELESTRAK","updated_at":"2026-09-20T09:00:13.587061Z"}}